DW1154 Mobile AL US current weather conditions

sailwx.info

Wind from 003 at 4 knots gusting 8

Air temperature 15.6° C
Dewpoint 4.9° C

Last reported at 2019-Nov-15 20:04 UTC.
Time now 2019-Nov-15 21:17 UTC

Location: N 30°37' W 088°11'.
View on Google Maps.

See reports from other nearby stations

  
Tides and Currents Weather Stations Pressure Air Temp Water Temp Dewpoint Dewpoint Depression Visibility Wind Speed Wind Dir Waves Ship Positions
date/time (UTC)wind fromknots sea level pressurealtimeterstation pressurevisibilityair tempwater tempwave heightnotes
2019-Nov-15 20:58 007 3 gusting 10 15.6
2019-Nov-15 20:49 009 4 gusting 10 15.6
2019-Nov-15 20:40 008 3 gusting 10 15.6
2019-Nov-15 20:31 355 3 gusting 8 15.6
2019-Nov-15 20:22 352 4 gusting 13 15.6
2019-Nov-15 20:13 359 3 gusting 12 15.6
2019-Nov-15 20:04 003 4 gusting 8 15.6
2019-Nov-15 19:55 355 5 gusting 11 15.6
2019-Nov-15 19:46 008 4 gusting 12 15.6
2019-Nov-15 19:37 359 4 gusting 12 15.6
2019-Nov-15 19:28 007 4 gusting 11 15.6
2019-Nov-15 19:19 003 5 gusting 11 15.6
2019-Nov-15 19:10 358 2 gusting 7 15.6
2019-Nov-15 19:01 359 4 gusting 9 15.0
2019-Nov-15 18:52 357 5 gusting 10 15.0
2019-Nov-15 18:43 359 3 gusting 7 15.0
2019-Nov-15 18:34 001 4 gusting 10 15.0
2019-Nov-15 18:25 351 3 gusting 10 15.0
2019-Nov-15 18:16 358 5 gusting 12 14.4
2019-Nov-15 18:07 359 4 gusting 9 14.4
2019-Nov-15 17:58 356 3 gusting 8 14.4
2019-Nov-15 17:49 005 4 gusting 13 14.4
2019-Nov-15 17:40 358 3 gusting 8 14.4
2019-Nov-15 17:31 005 3 gusting 9 13.9
2019-Nov-15 17:22 006 3 gusting 14 13.9
2019-Nov-15 17:13 004 3 gusting 8 13.3
2019-Nov-15 17:04 356 3 gusting 8 13.3
2019-Nov-15 16:55 005 3 gusting 6 13.3
2019-Nov-15 16:46 360 4 gusting 10 12.8
2019-Nov-15 16:37 011 1 gusting 6 12.8
2019-Nov-15 16:28 008 3 gusting 10 12.2
2019-Nov-15 16:19 005 2 gusting 6 12.2
2019-Nov-15 16:10 011 1 gusting 7 11.7
2019-Nov-15 16:01 016 3 gusting 8 11.7
2019-Nov-15 15:52 011 1 gusting 8 11.1
2019-Nov-15 15:43 011 3 gusting 6 11.1
2019-Nov-15 15:34 016 2 gusting 6 10.6
2019-Nov-15 15:25 019 2 gusting 10 10.0
2019-Nov-15 15:16 006 1 gusting 6 10.0
2019-Nov-15 15:07 353 2 gusting 6 9.4
2019-Nov-15 14:58 356 1 gusting 6 9.4
2019-Nov-15 14:49 025 2 gusting 9 8.9
2019-Nov-15 14:40 010 3 gusting 9 8.9
2019-Nov-15 14:31 017 2 gusting 8 8.3
2019-Nov-15 14:22 002 3 gusting 10 7.8
2019-Nov-15 14:13 007 2 gusting 7 7.8
2019-Nov-15 14:04 009 1 gusting 7 7.2
2019-Nov-15 13:55 003 2 gusting 7 7.2
2019-Nov-15 13:46 010 1 gusting 6 6.7
2019-Nov-15 13:37 027 2 gusting 7 6.7
2019-Nov-15 13:28 005 2 gusting 7 6.1
2019-Nov-15 13:19 003 1 gusting 5 6.1
2019-Nov-15 13:10 357 1 gusting 6 6.1
2019-Nov-15 13:01 002 1 gusting 7 6.1
2019-Nov-15 12:52 353 1 gusting 7 6.1
2019-Nov-15 12:43 354 0 gusting 3 6.1
2019-Nov-15 12:34 001 1 gusting 6 6.1
2019-Nov-15 12:25 013 1 gusting 4 6.1
2019-Nov-15 12:16 351 1 gusting 6 6.1
2019-Nov-15 12:07 359 1 gusting 5 6.7
2019-Nov-15 11:58 007 2 gusting 6 6.7
2019-Nov-15 11:49 020 2 gusting 9 6.1
2019-Nov-15 11:40 004 1 gusting 6 6.1
2019-Nov-15 11:31 358 1 gusting 6 6.7
2019-Nov-15 11:22 356 1 gusting 9 6.7
2019-Nov-15 11:13 359 2 gusting 6 6.7
2019-Nov-15 11:04 352 2 gusting 6 6.7
2019-Nov-15 10:55 350 3 gusting 7 6.7
2019-Nov-15 10:46 356 2 gusting 7 6.7
2019-Nov-15 10:37 001 2 gusting 6 6.7
2019-Nov-15 10:28 354 2 gusting 7 6.7
2019-Nov-15 10:19 351 2 gusting 6 6.7
2019-Nov-15 10:10 001 2 gusting 8 6.7
2019-Nov-15 10:01 353 2 gusting 7 6.7
2019-Nov-15 09:52 359 2 gusting 6 6.7
2019-Nov-15 09:43 360 1 gusting 6 6.7
2019-Nov-15 09:34 002 1 gusting 5 6.7
2019-Nov-15 09:25 012 1 gusting 6 6.7
2019-Nov-15 09:16 009 1 gusting 3 6.7
2019-Nov-15 09:07 359 1 gusting 7 6.7
2019-Nov-15 08:58 354 1 gusting 7 6.7
2019-Nov-15 08:49 002 2 gusting 6 6.7
2019-Nov-15 08:40 011 1 gusting 6 6.7
2019-Nov-15 08:31 349 1 gusting 6 6.7
2019-Nov-15 08:22 356 2 gusting 8 6.7
2019-Nov-15 08:13 006 1 gusting 8 7.2
2019-Nov-15 08:04 016 1 gusting 6 7.2
2019-Nov-15 07:55 007 0 gusting 5 7.2
2019-Nov-15 07:46 007 1 gusting 5 7.2
2019-Nov-15 07:01 031 0 gusting 4 7.2
2019-Nov-15 06:52 030 1 gusting 6 7.2
2019-Nov-15 06:43 024 1 gusting 6 7.2
2019-Nov-15 06:34 013 1 gusting 5 7.2
2019-Nov-15 06:25 025 1 gusting 6 6.7
2019-Nov-15 06:16 017 2 gusting 7 6.7
2019-Nov-15 06:07 001 1 gusting 5 6.7
2019-Nov-15 05:58 025 0 gusting 3 6.7
2019-Nov-15 05:49 351 1 gusting 5 6.7
2019-Nov-15 05:40 004 2 gusting 5 6.7
2019-Nov-15 05:31 001 1 gusting 6 6.7
2019-Nov-15 05:22 003 2 gusting 6 6.7
2019-Nov-15 05:13 355 1 gusting 6 6.7
2019-Nov-15 05:04 012 1 gusting 5 6.7
2019-Nov-15 04:55 005 1 gusting 6 6.7
2019-Nov-15 04:46 007 1 gusting 5 6.7
2019-Nov-15 04:37 017 1 gusting 6 6.7
2019-Nov-15 04:28 023 0 gusting 4 6.7
2019-Nov-15 04:19 012 0 gusting 4 6.7
2019-Nov-15 04:10 017 1 gusting 4 6.7
2019-Nov-15 04:01 005 0 gusting 5 6.7
2019-Nov-15 03:52 023 1 gusting 5 6.7
2019-Nov-15 03:43 013 0 gusting 6 6.7
2019-Nov-15 03:34 012 0 gusting 6 6.7
2019-Nov-15 03:25 011 1 gusting 6 6.7
2019-Nov-15 03:16 013 1 gusting 5 7.2
2019-Nov-15 03:07 360 0 gusting 3 7.2
2019-Nov-15 02:58 020 1 gusting 6 7.2
2019-Nov-15 02:49 027 0 gusting 5 7.2
2019-Nov-15 02:40 027 0 gusting 6 7.2
2019-Nov-15 02:31 048 0 gusting 6 7.2
2019-Nov-15 02:22 027 1 gusting 6 7.2
2019-Nov-15 02:13 002 1 gusting 6 7.2
2019-Nov-15 02:04 026 0 gusting 5 7.2
2019-Nov-15 01:55 019 0 gusting 3 7.2
2019-Nov-15 01:46 006 1 gusting 6 7.2
2019-Nov-15 01:37 006 0 gusting 6 7.2
2019-Nov-15 01:28 037 0 gusting 6 7.2
2019-Nov-15 01:19 044 0 gusting 6 7.2
2019-Nov-15 01:10 052 0 gusting 5 7.8
2019-Nov-15 01:01 037 0 gusting 4 7.8
2019-Nov-15 00:52 051 0 gusting 6 7.8
2019-Nov-15 00:43 048 0 gusting 4 7.8
2019-Nov-15 00:34 006 0 gusting 6 7.8
2019-Nov-15 00:25 360 0 gusting 4 7.8
2019-Nov-15 00:16 040 0 gusting 8 7.8
2019-Nov-15 00:07 029 1 gusting 8 7.8
2019-Nov-14 23:58 356 1 gusting 5 8.3
2019-Nov-14 23:49 023 0 gusting 5 8.3
2019-Nov-14 23:40 009 8.3
2019-Nov-14 23:31 027 0 gusting 3 8.3
2019-Nov-14 23:22 049 8.3
2019-Nov-14 23:13 039 8.3
2019-Nov-14 23:04 029 0 gusting 6 8.3
2019-Nov-14 22:55 014 0 gusting 5 8.9
2019-Nov-14 22:46 031 0 gusting 5 8.9
2019-Nov-14 22:37 024 0 gusting 5 8.9
2019-Nov-14 22:28 031 0 gusting 6 9.4
2019-Nov-14 22:19 038 1 gusting 5 9.4
2019-Nov-14 22:10 008 0 gusting 5 9.4
2019-Nov-14 22:01 004 0 gusting 6 9.4
2019-Nov-14 21:52 012 1 gusting 8 10.0
2019-Nov-14 21:43 360 1 gusting 6 10.0
2019-Nov-14 21:34 007 0 gusting 5 10.0
2019-Nov-14 21:25 005 0 gusting 3 10.0
2019-Nov-14 21:16 008 1 gusting 6 10.0
2019-Nov-14 21:07 009 1 gusting 5 10.0
2019-Nov-14 20:58 004 0 gusting 3 10.6
2019-Nov-14 20:49 003 1 gusting 3 10.6
2019-Nov-14 20:40 004 0 gusting 3 10.6
2019-Nov-14 20:31 359 0 gusting 3 10.0
2019-Nov-14 20:22 351 0 gusting 3 10.0
2019-Nov-14 20:13 351 0 gusting 2 10.0
2019-Nov-14 20:04 019 0 gusting 3 10.0
2019-Nov-14 19:55 036 0 gusting 4 10.0
2019-Nov-14 19:46 033 0 gusting 2 10.0
2019-Nov-14 19:37 044 10.0
2019-Nov-14 19:28 045 10.0
2019-Nov-14 19:19 045 10.6
2019-Nov-14 19:10 043 10.6
2019-Nov-14 19:01 035 10.6
2019-Nov-14 18:52 041 0 gusting 4 10.0
2019-Nov-14 18:43 059 0 gusting 4 10.0
2019-Nov-14 18:34 058 10.0
2019-Nov-14 18:25 043 10.0
2019-Nov-14 18:16 042 0 gusting 4 10.0
2019-Nov-14 18:07 040 10.0
2019-Nov-14 17:58 032 10.0
2019-Nov-14 17:49 038 0 gusting 5 10.0
2019-Nov-14 17:40 045 0 gusting 5 10.0
2019-Nov-14 17:31 013 10.0
2019-Nov-14 17:22 358 0 gusting 3 9.4
2019-Nov-14 17:13 014 0 gusting 3 9.4
2019-Nov-14 17:04 041 1 gusting 5 9.4
2019-Nov-14 16:55 039 0 gusting 5 9.4
2019-Nov-14 16:46 039 9.4
2019-Nov-14 16:37 039 9.4
2019-Nov-14 16:28 038 9.4
2019-Nov-14 16:19 038 9.4
2019-Nov-14 16:10 015 9.4
2019-Nov-14 16:01 010 8.9
2019-Nov-14 15:52 010 8.9
2019-Nov-14 15:43 8.9
2019-Nov-14 15:34 011 8.9
2019-Nov-14 15:25 012 8.9
2019-Nov-14 15:16 011 8.3
2019-Nov-14 15:07 8.3
2019-Nov-14 14:58 003 8.3
2019-Nov-14 14:49 033 0 gusting 4 8.3
2019-Nov-14 14:40 044 0 gusting 4 8.3
2019-Nov-14 14:31 046 0 gusting 5 8.3
2019-Nov-14 14:22 042 7.8
2019-Nov-14 14:13 042 7.8
2019-Nov-14 14:04 043 0 gusting 4 7.8
2019-Nov-14 13:55 041 7.8
2019-Nov-14 13:46 035 7.8
2019-Nov-14 13:37 035 7.8
2019-Nov-14 13:28 039 7.8
2019-Nov-14 13:19 042 7.8
2019-Nov-14 13:10 042 7.8
2019-Nov-14 13:01 043 7.2
2019-Nov-14 12:52 041 7.2
2019-Nov-14 12:34 039 7.2
2019-Nov-14 12:25 048 7.2
2019-Nov-14 12:16 047 7.2
2019-Nov-14 12:07 046 7.2
2019-Nov-14 11:58 047 7.2
2019-Nov-14 11:49 047 7.2
2019-Nov-14 11:40 047 7.2
2019-Nov-14 11:31 7.2
2019-Nov-14 11:22 047 7.2
2019-Nov-14 11:13 7.2
2019-Nov-14 11:04 047 7.2
2019-Nov-14 10:55 052 7.2
2019-Nov-14 10:46 7.2
2019-Nov-14 10:37 052 7.2
2019-Nov-14 10:28 040 0 gusting 5 7.8
2019-Nov-14 10:19 028 7.8
2019-Nov-14 10:10 022 7.8
2019-Nov-14 10:01 021 7.8
2019-Nov-14 09:52 021 7.8
2019-Nov-14 09:43 021 7.8
2019-Nov-14 09:34 021 7.8
2019-Nov-14 09:25 020 7.8
2019-Nov-14 09:16 020 7.8
2019-Nov-14 09:07 7.8
2019-Nov-14 08:58 020 7.8
2019-Nov-14 08:49 020 7.8
2019-Nov-14 08:40 016 7.8
2019-Nov-14 08:31 015 7.8
2019-Nov-14 08:22 7.2
2019-Nov-14 08:13 008 7.2
2019-Nov-14 08:04 008 7.2
2019-Nov-14 07:55 7.2
2019-Nov-14 07:46 008 7.2
2019-Nov-14 07:37 008 7.2
2019-Nov-14 07:28 009 7.2
2019-Nov-14 07:19 009 7.2
2019-Nov-14 07:10 009 7.2
2019-Nov-14 07:01 7.2
2019-Nov-14 06:52 009 7.2
2019-Nov-14 06:43 009 7.2
2019-Nov-14 06:34 019 7.2
2019-Nov-14 06:25 032 6.7
2019-Nov-14 06:16 018 6.7
2019-Nov-14 06:07 009 6.7
2019-Nov-14 05:58 6.7
2019-Nov-14 05:49 6.7
2019-Nov-14 05:40 057 6.7
2019-Nov-14 05:31 057 6.7
2019-Nov-14 05:22 059 6.1
2019-Nov-14 05:13 059 6.1
2019-Nov-14 05:04 059 5.6
2019-Nov-14 04:55 5.6
2019-Nov-14 04:46 5.6
2019-Nov-14 04:37 5.6
2019-Nov-14 04:28 5.6
2019-Nov-14 04:19 5.6
2019-Nov-14 04:10 059 5.6
2019-Nov-14 04:01 5.6
2019-Nov-14 03:52 5.6
2019-Nov-14 03:43 5.6
2019-Nov-14 03:34 5.6
2019-Nov-14 03:25 5.6
2019-Nov-14 03:16 5.6
2019-Nov-14 03:07 5.6
2019-Nov-14 02:58 5.6
2019-Nov-14 02:49 5.6
2019-Nov-14 02:40 5.6
2019-Nov-14 02:31 5.6
2019-Nov-14 02:22 5.6
2019-Nov-14 02:13 5.6
2019-Nov-14 02:04 5.6
2019-Nov-14 01:55 5.6
2019-Nov-14 01:46 5.6
2019-Nov-14 01:37 5.6
2019-Nov-14 01:28 5.6
2019-Nov-14 01:19 5.6
2019-Nov-14 01:10 5.6
2019-Nov-14 01:01 5.6
2019-Nov-14 00:52 5.6
2019-Nov-14 00:43 6.1
2019-Nov-14 00:34 6.1
2019-Nov-14 00:25 6.1
2019-Nov-14 00:16 6.1
2019-Nov-14 00:07 6.7
2019-Nov-13 23:58 6.7
2019-Nov-13 23:49 6.7
2019-Nov-13 23:40 7.2
2019-Nov-13 23:31 7.8
2019-Nov-13 23:22 7.8
2019-Nov-13 23:13 8.3
2019-Nov-13 23:04 8.3
2019-Nov-13 22:55 8.9
2019-Nov-13 22:46 8.9
2019-Nov-13 22:37 9.4
2019-Nov-13 22:28 9.4
2019-Nov-13 22:19 050 10.0
2019-Nov-13 22:10 044 10.0
2019-Nov-13 22:01 046 10.0
2019-Nov-13 21:52 053 10.0
2019-Nov-13 21:43 044 0 gusting 6 10.0
2019-Nov-13 21:34 034 0 gusting 6 10.0
2019-Nov-13 21:25 030 10.0
2019-Nov-13 21:16 030 10.0
2019-Nov-13 21:07 016 10.0